Regional Weather Roundup
Issued by NWS Bismarck, ND

Home | Current Version | Previous Version | Text Only | Print | Product List | Glossary On
Versions: 1 2 3 4 5 6 7 8 9 10 11 12 13 14 15 16 17 18 19 20 21 22 23 24 25 26 27 28 29 30 31 32 33 34 35 36 37 38 39 40 41 42 43 44 45 46 47 48 49 50
000
ASUS43 KBIS 240810
RWRBIS

NWR BROADCAST TEXT
NATIONAL WEATHER SERVICE BISMARCK ND
300 AM CDT TUE OCT 24 2017

NOTE: "FAIR" INDICATES FEW OR NO CLOUDS BELOW 12,000 FEET WITH NO
SIGNIFICANT WEATHER AND/OR OBSTRUCTIONS TO VISIBILITY.


CITY           SKY/WX    TMP DP  RH WIND       PRES   REMARKS
WILLISTON      CLEAR     38  28  67 NW12      30.39F
MINOT          CLEAR     37  30  75 NW14      30.32S
MINOT AFB      CLEAR     32  29  87 NW13      30.32R
BISMARCK       CLEAR     39  30  70 NW7       30.33R
DICKINSON      CLEAR     32  26  78 W10       30.38S
GARRISON         N/A     34  30  85 NW12      30.33S
HETTINGER ARPT CLEAR     31  24  75 NW12      30.41R
JAMESTOWN      CLEAR     35  29  78 NW15      30.22R
CARRINGTON     FAIR      34  30  86 NW8       30.27R
HAZEN          FAIR      39  32  75 SW9       30.37S
LINTON           N/A     37  27  65 NW10      30.32R
RUGBY            N/A     32  30  93 NW12      30.28R
STANLEY        FAIR      34  32  93 NW10      30.38R
TIOGA          FAIR      32  32 100 W10       30.38F
WATFORD CITY   FAIR      32  27  80 SW8       30.40S
$$

CITY           SKY/WX    TMP DP  RH WIND       PRES   REMARKS
GRAND FORKS    PTCLDY    32  29  88 NW10      30.17S
GRAND FORKS AF CLEAR     33  28  82 NW12      30.18S
DEVILS LAKE    CLEAR     29  26  89 NW9       30.25R
FARGO          MOCLDY    36  31  82 N21       30.14S
CANDO          FAIR      30  30 100 N8        30.28R
CAVALIER       FAIR      34  30  86 NW13G20   30.21R
GRAFTON        FAIR      34  28  80 NW13      30.21R
GWINNER          N/A     32  28  86 NW12      30.18S
LANGDON        FAIR      28  27  93 NW12      30.22S WCI  18
ROLLA          FAIR      32  28  86 NW16      30.26S
WALHALLA       FAIR     N/A N/A N/A NW8       30.22S
$$

CITY           SKY/WX    TMP DP  RH WIND       PRES   REMARKS
ABERDEEN       PTCLDY    35  29  78 NW10      30.22R
MOBRIDGE       PTCLDY    41  31  67 NW12      30.29R
BUFFALO          N/A     39  24  55 NW16      30.37R
RAPID CITY     CLEAR     43  22  43 NW20      30.44F
GLASGOW        CLEAR     30  23  75 W6        30.45S
SIDNEY         CLEAR     37  24  59 NW13      30.42F
WOLF POINT     CLEAR     33  23  66 SW9       30.46S
GLENDIVE       CLEAR     33  22  63 W10       30.47R
MILES CITY     CLEAR     32  24  72 W10       30.49F
BAKER          CLEAR     31  24  75 W10       30.46F
$$

CITY           SKY/WX    TMP DP  RH WIND       PRES   REMARKS
BILLINGS       CLOUDY    40  22  48 S12       30.52F
GREAT FALLS    CLOUDY    42  26  53 SW14      30.49F
REGINA         CLEAR     27  23  86 SW5       30.35F
ESTEVAN        PTCLDY    28  27  93 W10       30.35F WCI  19
$$





USA.gov is the U.S. government's official web portal to all federal, state and local government web resources and services.